CZ-6A DEB, 61327

Orbit data source: Space-Track

CZ-6A DEB, 61327 is space debris in LEO originally from a launch on Tue, 06 Aug 2024 UTC launched from the Taiyaun Space Center, China (TSC). Debris objects in space refer to the collection of defunct objects orbiting the Earth. Examples of debris include non-operational satellites, rocket bodies, and fragments generated from explosions, collisions, or faulty payload assembly.

Loading next visibility...
Identifier
61327, 2024-140UQ
Orbit
LEO
Country
Flag of CNCN / PRC
Related business
Manufacturer
SAST
Mission
Spacecraft
Bus & Motor
Unknown
Mass
Unknown
Launch date (UTC)
2024-08-06 (2 years ago)
Launch vehicle
Unknown
Launch site
Taiyaun Space Center, China (TSC)
Object type
Payload
Rocket body
Debris
Shape & HBR
Unknown shape, 0.1 m
Radar Cross Section
Small (<0.1 m²)

Expand to show TLE details & history
Last TLE update: 15 hours ago

TLE from 15 hours ago
0 CZ-6A DEB
1 61327U 24140UQ  26171.22497660  .00058789  00000-0  12124-2 0  9992
2 61327  89.0636 266.3477 0068506  26.6703 333.8051 15.43111132 98740
Epoch: 2026-06-20T05:23Z
TLE epoch observation values (Epoch: 2026-06-20T05:23:57.978Z)
Latitude
-0°
Longitude
-83.08653°
Altitude
398.322 km
Speed
7.695 km/s
True Right ascension
17h 45m 23s
True Declination
0° 00' 00"
Sunlit
Object was in full shadow at epoch
Visualization orbit readout
Latitude
Unknown
Longitude
Unknown
Altitude
Unknown
Speed
Unknown
Apparent Right ascension
Unknown
Apparent Declination
Unknown
Sunlit
N/A
Visualization observer readout
Local Sidereal Time
07:12:03
Azimuth
Unknown
Elevation
Unknown
Doppler factor
Unknown
Orbital elements
Apogee altitude
480.376 km
Perigee altitude
387.045 km
Semi-major axis
6,811.847 km
Eccentricity
0.00685
Inclination
89.0636°
RAAN
266.3477°
Arg. of periapsis
26.6703°
True anomaly
333.45589°
Mean anomaly
333.8051°
Eccentric anomaly
333.63076°
Mean motion
3.86052 °/min
Orbital period
93.25 mins
BSTAR
0.0012124
Loading maneuver chart data...
Computing Atmospheric mass density...
Loading historical data...
Loading historical data...
Loading historical data...
Loading historical data...
Loading historical data...
Loading historical data...
Loading historical data...

Documentation

Showing up to 5 results
|